When you browse on this site, cookies collect data to enhance your experience and personalize the content and advertising you see.
Visit our Privacy Policy to learn more. By continuing to use the site, you agree to this use of cookies and data.
  • In France
  • List of Countries
  • For 7 days
  • Water Temperature
  • Satellite Maps
  • Weather Map
  • Weather Widgets
  • user-avatar
    Login

    Hourly Weather Biskira

    Today, 24 January, Thursday

    Time Temperature Precipitation Wind Pressure Humidity
    00:00 +11°C° 0 mm 10 mps 739 mmHg 59%
    01:00 +12°C° 0.2 mm 12 mps 738 mmHg 59%
    02:00 +12°C° 0.2 mm 13 mps 738 mmHg 59%
    03:00 +13°C° 0.2 mm 15 mps 737 mmHg 59%
    04:00 +12°C° 0.4 mm 14 mps 737 mmHg 63%
    05:00 +10°C° 0.4 mm 12 mps 737 mmHg 68%
    06:00 +11°C° 0 mm 9 mps 737 mmHg 73%
    07:00 +11°C° 0 mm 11 mps 737 mmHg 66%
    08:00 +10°C° 0 mm 13 mps 738 mmHg 60%
    09:00 +12°C° 0 mm 14 mps 738 mmHg 53%
    10:00 +10°C° 0 mm 14 mps 739 mmHg 49%
    11:00 +10°C° 0 mm 14 mps 740 mmHg 44%
    12:00 +10°C° 0 mm 13 mps 741 mmHg 39%
    13:00 +10°C° 0 mm 14 mps 741 mmHg 34%
    14:00 +10°C° 0 mm 14 mps 742 mmHg 30%
    15:00 +10°C° 0 mm 14 mps 742 mmHg 25%
    16:00 +9°C° 0 mm 14 mps 742 mmHg 30%
    17:00 +8°C° 0 mm 13 mps 743 mmHg 35%
    18:00 +7°C° 0 mm 12 mps 743 mmHg 40%
    19:00 +7°C° 0 mm 13 mps 744 mmHg 43%
    20:00 +7°C° 0 mm 13 mps 744 mmHg 46%
    21:00 +5°C° 0 mm 13 mps 745 mmHg 49%
    22:00 +5°C° 0 mm 14 mps 745 mmHg 50%
    23:00 +5°C° 0 mm 14 mps 745 mmHg 51%

    Tomorrow, 25 January, Friday

    Time Temperature Precipitation Wind Pressure Humidity
    00:00 +5°C° 0 mm 14 mps 746 mmHg 52%
    01:00 +5°C° 0 mm 14 mps 746 mmHg 53%
    02:00 +5°C° 0 mm 13 mps 746 mmHg 53%
    03:00 +5°C° 0 mm 13 mps 746 mmHg 54%
    04:00 +4°C° 0 mm 12 mps 747 mmHg 55%
    05:00 +4°C° 0 mm 11 mps 747 mmHg 56%
    06:00 +5°C° 0 mm 9 mps 748 mmHg 57%
    07:00 +6°C° 0 mm 9 mps 748 mmHg 54%
    08:00 +7°C° 0 mm 9 mps 749 mmHg 50%
    09:00 +7°C° 0 mm 10 mps 749 mmHg 47%
    10:00 +9°C° 0 mm 10 mps 749 mmHg 42%
    11:00 +11°C° 0 mm 10 mps 749 mmHg 37%
    12:00 +12°C° 0 mm 10 mps 749 mmHg 32%
    13:00 +12°C° 0 mm 10 mps 749 mmHg 32%
    14:00 +12°C° 0 mm 10 mps 749 mmHg 31%
    15:00 +12°C° 0 mm 11 mps 749 mmHg 31%
    16:00 +11°C° 0 mm 9 mps 750 mmHg 34%
    17:00 +10°C° 0 mm 7 mps 750 mmHg 38%
    18:00 +10°C° 0 mm 6 mps 750 mmHg 41%
    19:00 +9°C° 0 mm 6 mps 751 mmHg 46%
    20:00 +9°C° 0 mm 7 mps 751 mmHg 50%
    21:00 +9°C° 0 mm 7 mps 751 mmHg 55%
    22:00 +8°C° 0 mm 6 mps 751 mmHg 59%
    23:00 +8°C° 0 mm 6 mps 752 mmHg 63%

    Day after tomorrow, 26 January, Saturday

    Time Temperature Precipitation Wind Pressure Humidity
    00:00 +7°C° 0 mm 5 mps 752 mmHg 67%
    01:00 +7°C° 0 mm 5 mps 752 mmHg 68%
    02:00 +7°C° 0 mm 5 mps 752 mmHg 69%
    03:00 +7°C° 0 mm 4 mps 752 mmHg 70%
    04:00 +7°C° 0 mm 4 mps 752 mmHg 72%
    05:00 +7°C° 0 mm 4 mps 752 mmHg 73%
    06:00 +6°C° 0 mm 4 mps 752 mmHg 74%
    07:00 +8°C° 0 mm 5 mps 753 mmHg 69%
    08:00 +9°C° 0 mm 6 mps 753 mmHg 64%
    09:00 +11°C° 0 mm 6 mps 754 mmHg 59%
    10:00 +12°C° 0 mm 7 mps 754 mmHg 53%
    11:00 +15°C° 0 mm 8 mps 754 mmHg 47%
    12:00 +16°C° 0 mm 8 mps 754 mmHg 41%
    13:00 +17°C° 0 mm 8 mps 754 mmHg 41%
    14:00 +17°C° 0 mm 8 mps 754 mmHg 41%
    15:00 +17°C° 0 mm 8 mps 753 mmHg 40%
    16:00 +16°C° 0 mm 6 mps 754 mmHg 44%
    17:00 +15°C° 0 mm 5 mps 754 mmHg 49%
    18:00 +13°C° 0 mm 4 mps 755 mmHg 53%
    19:00 +13°C° 0 mm 4 mps 755 mmHg 56%
    20:00 +12°C° 0 mm 3 mps 755 mmHg 58%
    21:00 +12°C° 0 mm 3 mps 756 mmHg 60%
    22:00 +11°C° 0 mm 3 mps 755 mmHg 61%
    23:00 +12°C° 0 mm 2 mps 755 mmHg 62%

    27 January, Sunday

    Time Temperature Precipitation Wind Pressure Humidity
    00:00 +12°C° 0 mm 2 mps 755 mmHg 63%
    01:00 +10°C° 0 mm 2 mps 755 mmHg 65%
    02:00 +10°C° 0 mm 1 mps 754 mmHg 67%
    03:00 +10°C° 0 mm 1 mps 754 mmHg 69%
    04:00 +10°C° 0 mm 1 mps 754 mmHg 69%
    05:00 +9°C° 0 mm 1 mps 754 mmHg 70%
    06:00 +8°C° 0 mm 0 mps 753 mmHg 71%
    07:00 +10°C° 0 mm 1 mps 753 mmHg 65%
    08:00 +12°C° 0 mm 2 mps 753 mmHg 58%
    09:00 +13°C° 0 mm 2 mps 753 mmHg 52%
    10:00 +14°C° 0 mm 2 mps 752 mmHg 48%
    11:00 +14°C° 0 mm 3 mps 751 mmHg 45%
    12:00 +16°C° 0 mm 3 mps 751 mmHg 41%
    13:00 +16°C° 0 mm 3 mps 750 mmHg 40%
    14:00 +17°C° 0 mm 2 mps 749 mmHg 38%
    15:00 +17°C° 0 mm 2 mps 748 mmHg 37%
    16:00 +16°C° 0 mm 2 mps 748 mmHg 40%
    17:00 +15°C° 0 mm 2 mps 748 mmHg 42%
    18:00 +15°C° 0 mm 1 mps 748 mmHg 44%
    19:00 +14°C° 0 mm 1 mps 748 mmHg 45%
    20:00 +14°C° 0 mm 1 mps 748 mmHg 46%
    21:00 +13°C° 0 mm 1 mps 748 mmHg 47%
    22:00 +13°C° 0 mm 2 mps 748 mmHg 51%
    23:00 +13°C° 0 mm 2 mps 748 mmHg 54%

    28 January, Monday

    Time Temperature Precipitation Wind Pressure Humidity
    00:00 +12°C° 0 mm 3 mps 748 mmHg 57%
    01:00 +11°C° 0 mm 3 mps 747 mmHg 61%
    02:00 +11°C° 0 mm 4 mps 747 mmHg 66%
    03:00 +11°C° 0 mm 4 mps 746 mmHg 70%
    04:00 +10°C° 0 mm 4 mps 746 mmHg 71%
    05:00 +9°C° 0 mm 5 mps 747 mmHg 72%
    06:00 +9°C° 0 mm 5 mps 747 mmHg 72%
    07:00 +10°C° 0 mm 6 mps 747 mmHg 66%
    08:00 +11°C° 0 mm 8 mps 747 mmHg 60%
    09:00 +11°C° 0 mm 9 mps 748 mmHg 55%
    10:00 +12°C° 0 mm 10 mps 748 mmHg 49%
    11:00 +13°C° 0 mm 10 mps 748 mmHg 42%
    12:00 +13°C° 0 mm 11 mps 747 mmHg 36%
    13:00 +13°C° 0 mm 11 mps 747 mmHg 35%
    14:00 +13°C° 0 mm 11 mps 747 mmHg 34%
    15:00 +13°C° 0 mm 11 mps 747 mmHg 33%
    16:00 +12°C° 0 mm 11 mps 747 mmHg 37%
    17:00 +11°C° 0 mm 10 mps 748 mmHg 41%
    18:00 +10°C° 0 mm 9 mps 748 mmHg 44%
    19:00 +8°C° 0 mm 9 mps 749 mmHg 48%
    20:00 +8°C° 0 mm 9 mps 749 mmHg 51%
    21:00 +7°C° 0 mm 9 mps 750 mmHg 54%
    22:00 +7°C° 0 mm 8 mps 750 mmHg 56%
    23:00 +7°C° 0 mm 8 mps 750 mmHg 58%

    29 January, Tuesday

    Time Temperature Precipitation Wind Pressure Humidity
    00:00 +6°C° 0 mm 7 mps 750 mmHg 59%
    01:00 +7°C° 0 mm 6 mps 750 mmHg 61%
    02:00 +7°C° 0 mm 5 mps 750 mmHg 63%
    03:00 +6°C° 0 mm 4 mps 750 mmHg 65%
    04:00 +6°C° 0 mm 4 mps 750 mmHg 66%
    05:00 +6°C° 0 mm 4 mps 750 mmHg 67%
    06:00 +5°C° 0 mm 4 mps 751 mmHg 68%
    07:00 +7°C° 0 mm 4 mps 751 mmHg 63%
    08:00 +8°C° 0 mm 5 mps 752 mmHg 57%
    09:00 +9°C° 0 mm 6 mps 752 mmHg 52%
    10:00 +10°C° 0 mm 7 mps 752 mmHg 45%
    11:00 +11°C° 0 mm 7 mps 752 mmHg 38%
    12:00 +12°C° 0 mm 8 mps 751 mmHg 32%
    13:00 +12°C° 0 mm 8 mps 751 mmHg 32%
    14:00 +12°C° 0 mm 8 mps 751 mmHg 33%
    15:00 +12°C° 0 mm 8 mps 751 mmHg 34%
    16:00 +12°C° 0 mm 7 mps 751 mmHg 37%
    17:00 +11°C° 0 mm 6 mps 751 mmHg 40%
    18:00 +12°C° 0 mm 4 mps 751 mmHg 43%
    19:00 +10°C° 0 mm 5 mps 752 mmHg 46%
    20:00 +10°C° 0 mm 5 mps 752 mmHg 48%
    21:00 +10°C° 0 mm 5 mps 752 mmHg 51%
    22:00 +9°C° 0 mm 5 mps 752 mmHg 55%
    23:00 +10°C° 0 mm 4 mps 752 mmHg 59%
    Show more